Location: Park Creek Village Mobile Home Park
(38.2885°N, 122.4714°W)
Time: 08:22:45
(UTC+00:00)

Cosmos 2221 Rocket - Pass Details

Date: 14 December 2019
Orbit: 620 x 648 km, 82.5° (Epoch: 18 January)

Event Time Altitude Azimuth Distance (km) Brightness Sun altitude
Exits shadow 13:44:04 14° 346° (NNW) 1,721 5.5 -18.0°
Maximum altitude 13:47:46 69° 265° (W) 669 3.5 -17.3°
Drops below altitude 10° 13:52:08 10° 183° (S) 1,989 6.3 -16.4°
Sets 13:54:22 0° 180° (S) 2,894 7.2 -16.0°
